Regional Weather Roundup
Issued by NWS Little Rock, AR

Home | Current Version | Previous Version | Text Only | Print | Product List | Glossary On
Versions: 1 2 3 4 5 6 7 8 9 10 11 12 13 14 15 16 17 18 19 20 21 22 23 24 25 26 27 28 29 30 31 32 33 34 35 36 37 38 39 40 41 42 43 44 45 46 47 48 49 50
874
ASUS44 KLZK 131605
RWRLZK

WEATHER ROUNDUP FOR ARKANSAS
NATIONAL WEATHER SERVICE LITTLE ROCK AR
1000 AM CST SAT FEB 13 2016

NOTE: "FAIR" INDICATES FEW OR NO CLOUDS BELOW 12,000 FEET WITH NO
SIGNIFICANT WEATHER AND/OR OBSTRUCTIONS TO VISIBILITY.

ARZ001-003-010-029-131700-
NORTHWEST ARKANSAS

CITY           SKY/WX    TMP DP  RH WIND       PRES   REMARKS
FAYETTEVILLE   SUNNY     33  12  41 E7        30.49F WCI  27
FORT SMITH     SUNNY     41  15  35 E15       30.51F
HARRISON       MOSUNNY   29   6  38 E9        30.53F WCI  20
BENTONVILLE    SUNNY     34   5  29 E13       30.50S WCI  25
ROGERS         SUNNY     32   5  32 E10       30.49F WCI  24
SILOAM SPGS    SUNNY     34   3  27 E7        30.49F WCI  28
HIGHFILL       SUNNY     34   4  28 E13G18    30.49F WCI  25
SPRINGDALE     SUNNY     32   9  37 E12       30.51F WCI  23
$$

ARZ004-005-016-131700-
NORTH CENTRAL ARKANSAS

CITY           SKY/WX    TMP DP  RH WIND       PRES   REMARKS
BATESVILLE     CLOUDY    30   3  31 E10       30.61F WCI  21
FLIPPIN        CLOUDY    30   5  34 E7        30.56S WCI  23
MTN HOME       CLOUDY    28  -2  27 E8        30.56S WCI  20
$$

ARZ040-041-131700-
WEST CENTRAL ARKANSAS

CITY           SKY/WX    TMP DP  RH WIND       PRES   REMARKS
MENA           SUNNY     43  27  52 NE10      30.48S
MOUNT IDA      SUNNY     41  19  41 VRB3      30.49S
$$

ARZ009-017-025-026-028-131700-
NORTHEAST ARKANSAS

CITY           SKY/WX    TMP DP  RH WIND       PRES   REMARKS
JONESBORO      CLOUDY    25   9  50 NE15      30.63S WCI  13
NEWPORT        CLOUDY    29   1  30 NE12      30.64S WCI  19
WALNUT RIDGE   CLOUDY    27   3  36 E12       30.65R WCI  16
BLYTHEVILLE    CLOUDY    28  10  46 NE15      30.63S WCI  16
$$

ARZ022-023-033-042-044-131700-
CENTRAL ARKANSAS

CITY           SKY/WX    TMP DP  RH WIND       PRES   REMARKS
LITTLE ROCK    MOSUNNY   36   9  32 E13       30.60S
N LITTLE ROCK  MOSUNNY   35  13  40 E13       30.60S WCI  27
JACKSONVILLE   PTSUNNY   34  10  37 NE8       30.59S WCI  27
SEARCY         CLOUDY    32   8  36 NE12G18   30.63R WCI  23
HOT SPRINGS    SUNNY     38  12  34 E7        30.54F
RUSSELLVILLE   SUNNY     37   6  27 E12       30.56F
CLINTON        FAIR      32   7  34 CALM      30.59S
$$

ARZ036-131700-
EAST ARKANSAS

CITY           SKY/WX    TMP DP  RH WIND       PRES   REMARKS
WEST MEMPHIS   CLOUDY    30  10  43 NE10      30.60R WCI  21
$$

ARZ050-053-066-070-073-131700-
SOUTHWEST ARKANSAS

CITY           SKY/WX    TMP DP  RH WIND       PRES   REMARKS
ARKADELPHIA    FAIR      42  18  38 E12       30.57S
CAMDEN         MIX PCPN  41  18  38 E9        30.56S
TEXARKANA      MOSUNNY   44  24  45 E12G18    30.50R
EL DORADO      SUNNY     42  17  36 E14       30.54R
DE QUEEN       MOSUNNY   45  28  51 E14       30.49R
$$

ARZ056-057-069-131700-
SOUTHEAST ARKANSAS

CITY           SKY/WX    TMP DP  RH WIND       PRES   REMARKS
PINE BLUFF     MIX PCPN  35  12  38 NE14      30.60R WCI  26
STUTTGART      SUNNY     34  10  37 NE10      30.61S WCI  26
MONTICELLO     SUNNY     40  14  34 NE14G22   30.57R

$$






USA.gov is the U.S. government's official web portal to all federal, state and local government web resources and services.